This is the latest recevied weather packets stored in our database for station/object K6LCM-13. If no packets are shown the sender has not sent any weather packets the latest 10 day(s).
| Time | Temp. | Humidity | Pressure | Rain* | Wind** | Luminosity | Snow |
|---|---|---|---|---|---|---|---|
| 1777947201 | 15° C | 81% | 1014.1 hPa | 0 mm | - | - | - |
| 1777946661 | 15° C | 81% | 1014.2 hPa | 0 mm | - | - | - |
| 1777946121 | 15° C | 81% | 1014.2 hPa | 0 mm | - | - | - |
| 1777945581 | 15.56° C | 80% | 1014.3 hPa | 0 mm | - | - | - |
| 1777945040 | 15.56° C | 80% | 1014.4 hPa | 0 mm | - | - | - |
| 1777944501 | 15.56° C | 79% | 1014.5 hPa | 0 mm | - | - | - |
| 1777943961 | 15.56° C | 80% | 1014.5 hPa | 0 mm | - | - | - |
| 1777943420 | 15.56° C | 79% | 1014.6 hPa | 0 mm | - | - | - |
| 1777942794 | 15.56° C | 78% | 1014.6 hPa | 0 mm | - | - | - |
| 1777942254 | 15.56° C | 76% | 1014.6 hPa | 0 mm | - | - | - |
| 1777941714 | 16.11° C | 75% | 1014.5 hPa | 0 mm | - | - | - |
| 1777941175 | 16.11° C | 74% | 1014.5 hPa | 0 mm | - | - | - |
| 1777940634 | 16.67° C | 72% | 1014.6 hPa | 0 mm | - | - | - |
| 1777940094 | 16.67° C | 72% | 1014.5 hPa | 0 mm | - | - | - |
| 1777939554 | 16.11° C | 73% | 1014.5 hPa | 0 mm | - | - | - |
| 1777939015 | 16.11° C | 74% | 1014.7 hPa | 0 mm | - | - | - |
| 1777938474 | 16.11° C | 76% | 1014.7 hPa | 0 mm | - | - | - |
| 1777937934 | 16.11° C | 78% | 1014.6 hPa | 0 mm | - | - | - |
| 1777937394 | 16.11° C | 79% | 1014.6 hPa | 0 mm | - | - | - |
| 1777936314 | 16.11° C | 78% | 1014.7 hPa | 0 mm | - | - | - |
| 1777935774 | 16.67° C | 78% | 1014.8 hPa | 0 mm | - | - | - |
| 1777935235 | 16.67° C | 77% | 1014.9 hPa | 0 mm | - | - | - |
| 1777934694 | 16.67° C | 77% | 1014.8 hPa | 0 mm | - | - | - |
| 1777933075 | 17.22° C | 76% | 1015.1 hPa | 0 mm | - | - | - |
| 1777932534 | 17.22° C | 72% | 1015.3 hPa | 0 mm | - | - | - |
* Rain latest hour (hover to see other rain measurements)
** Current wind speed in m/s (hover to see current wind gust speed)